locationName,lineName,date,time,countIn,countOut
�n����ʂ�,3_1_1,2022/6/1,0:00,2,4
�n����ʂ�,3_1_1,2022/6/1,1:00,2,1
�n����ʂ�,3_1_1,2022/6/1,2:00,0,2
�n����ʂ�,3_1_1,2022/6/1,3:00,0,6
�n����ʂ�,3_1_1,2022/6/1,4:00,7,4
�n����ʂ�,3_1_1,2022/6/1,5:00,23,28
�n����ʂ�,3_1_1,2022/6/1,6:00,40,70
�n����ʂ�,3_1_1,2022/6/1,7:00,95,480
�n����ʂ�,3_1_1,2022/6/1,8:00,126,339
�n����ʂ�,3_1_1,2022/6/1,9:00,173,141
�n����ʂ�,3_1_1,2022/6/1,10:00,170,149
�n����ʂ�,3_1_1,2022/6/1,11:00,183,158
�n����ʂ�,3_1_1,2022/6/1,12:00,218,186
�n����ʂ�,3_1_1,2022/6/1,13:00,183,147
�n����ʂ�,3_1_1,2022/6/1,14:00,165,106
�n����ʂ�,3_1_1,2022/6/1,15:00,202,135
�n����ʂ�,3_1_1,2022/6/1,16:00,500,156
�n����ʂ�,3_1_1,2022/6/1,17:00,259,147
�n����ʂ�,3_1_1,2022/6/1,18:00,207,134
�n����ʂ�,3_1_1,2022/6/1,19:00,77,77
�n����ʂ�,3_1_1,2022/6/1,20:00,32,28
�n����ʂ�,3_1_1,2022/6/1,21:00,16,16
�n����ʂ�,3_1_1,2022/6/1,22:00,8,7
�n����ʂ�,3_1_1,2022/6/1,23:00,5,2
�n����ʂ�,3_1_1,2022/6/2,0:00,1,3
�n����ʂ�,3_1_1,2022/6/2,1:00,3,3
�n����ʂ�,3_1_1,2022/6/2,2:00,0,2
�n����ʂ�,3_1_1,2022/6/2,3:00,2,3
�n����ʂ�,3_1_1,2022/6/2,4:00,3,5
�n����ʂ�,3_1_1,2022/6/2,5:00,31,26
�n����ʂ�,3_1_1,2022/6/2,6:00,35,50
�n����ʂ�,3_1_1,2022/6/2,7:00,91,463
�n����ʂ�,3_1_1,2022/6/2,8:00,111,361
�n����ʂ�,3_1_1,2022/6/2,9:00,155,96
�n����ʂ�,3_1_1,2022/6/2,10:00,128,165
�n����ʂ�,3_1_1,2022/6/2,11:00,138,141
�n����ʂ�,3_1_1,2022/6/2,12:00,177,161
�n����ʂ�,3_1_1,2022/6/2,13:00,145,138
�n����ʂ�,3_1_1,2022/6/2,14:00,131,95
�n����ʂ�,3_1_1,2022/6/2,15:00,119,92
�n����ʂ�,3_1_1,2022/6/2,16:00,229,106
�n����ʂ�,3_1_1,2022/6/2,17:00,275,117
�n����ʂ�,3_1_1,2022/6/2,18:00,376,104
�n����ʂ�,3_1_1,2022/6/2,19:00,78,63
�n����ʂ�,3_1_1,2022/6/2,20:00,31,26
�n����ʂ�,3_1_1,2022/6/2,21:00,30,15
�n����ʂ�,3_1_1,2022/6/2,22:00,10,9
�n����ʂ�,3_1_1,2022/6/2,23:00,10,4
�n����ʂ�,3_1_1,2022/6/3,0:00,2,1
�n����ʂ�,3_1_1,2022/6/3,1:00,2,1
�n����ʂ�,3_1_1,2022/6/3,2:00,0,3
�n����ʂ�,3_1_1,2022/6/3,3:00,2,5
�n����ʂ�,3_1_1,2022/6/3,4:00,5,9
�n����ʂ�,3_1_1,2022/6/3,5:00,19,29
�n����ʂ�,3_1_1,2022/6/3,6:00,44,63
�n����ʂ�,3_1_1,2022/6/3,7:00,97,523
�n����ʂ�,3_1_1,2022/6/3,8:00,148,313
�n����ʂ�,3_1_1,2022/6/3,9:00,180,145
�n����ʂ�,3_1_1,2022/6/3,10:00,189,167
�n����ʂ�,3_1_1,2022/6/3,11:00,195,178
�n����ʂ�,3_1_1,2022/6/3,12:00,198,195
�n����ʂ�,3_1_1,2022/6/3,13:00,191,172
�n����ʂ�,3_1_1,2022/6/3,14:00,173,88
�n����ʂ�,3_1_1,2022/6/3,15:00,190,120
�n����ʂ�,3_1_1,2022/6/3,16:00,271,128
�n����ʂ�,3_1_1,2022/6/3,17:00,269,98
�n����ʂ�,3_1_1,2022/6/3,18:00,361,126
�n����ʂ�,3_1_1,2022/6/3,19:00,90,101
�n����ʂ�,3_1_1,2022/6/3,20:00,70,66
�n����ʂ�,3_1_1,2022/6/3,21:00,28,32
�n����ʂ�,3_1_1,2022/6/3,22:00,13,9
�n����ʂ�,3_1_1,2022/6/3,23:00,7,12
�n����ʂ�,3_1_1,2022/6/4,0:00,1,3
�n����ʂ�,3_1_1,2022/6/4,1:00,2,1
�n����ʂ�,3_1_1,2022/6/4,2:00,3,4
�n����ʂ�,3_1_1,2022/6/4,3:00,2,6
�n����ʂ�,3_1_1,2022/6/4,4:00,5,7
�n����ʂ�,3_1_1,2022/6/4,5:00,27,29
�n����ʂ�,3_1_1,2022/6/4,6:00,44,52
�n����ʂ�,3_1_1,2022/6/4,7:00,56,193
�n����ʂ�,3_1_1,2022/6/4,8:00,71,143
�n����ʂ�,3_1_1,2022/6/4,9:00,139,139
�n����ʂ�,3_1_1,2022/6/4,10:00,192,225
�n����ʂ�,3_1_1,2022/6/4,11:00,243,260
�n����ʂ�,3_1_1,2022/6/4,12:00,255,302
�n����ʂ�,3_1_1,2022/6/4,13:00,346,254
�n����ʂ�,3_1_1,2022/6/4,14:00,322,246
�n����ʂ�,3_1_1,2022/6/4,15:00,390,288
�n����ʂ�,3_1_1,2022/6/4,16:00,296,249
�n����ʂ�,3_1_1,2022/6/4,17:00,237,202
�n����ʂ�,3_1_1,2022/6/4,18:00,194,162
�n����ʂ�,3_1_1,2022/6/4,19:00,98,88
�n����ʂ�,3_1_1,2022/6/4,20:00,43,38
�n����ʂ�,3_1_1,2022/6/4,21:00,24,12
�n����ʂ�,3_1_1,2022/6/4,22:00,13,17
�n����ʂ�,3_1_1,2022/6/4,23:00,12,14
�n����ʂ�,3_1_1,2022/6/5,0:00,2,8
�n����ʂ�,3_1_1,2022/6/5,1:00,4,5
�n����ʂ�,3_1_1,2022/6/5,2:00,4,2
�n����ʂ�,3_1_1,2022/6/5,3:00,2,8
�n����ʂ�,3_1_1,2022/6/5,4:00,1,5
�n����ʂ�,3_1_1,2022/6/5,5:00,13,29
�n����ʂ�,3_1_1,2022/6/5,6:00,24,30
�n����ʂ�,3_1_1,2022/6/5,7:00,43,63
�n����ʂ�,3_1_1,2022/6/5,8:00,65,105
�n����ʂ�,3_1_1,2022/6/5,9:00,97,109
�n����ʂ�,3_1_1,2022/6/5,10:00,208,280
�n����ʂ�,3_1_1,2022/6/5,11:00,309,294
�n����ʂ�,3_1_1,2022/6/5,12:00,283,330
�n����ʂ�,3_1_1,2022/6/5,13:00,342,315
�n����ʂ�,3_1_1,2022/6/5,14:00,248,253
�n����ʂ�,3_1_1,2022/6/5,15:00,202,136
�n����ʂ�,3_1_1,2022/6/5,16:00,134,122
�n����ʂ�,3_1_1,2022/6/5,17:00,135,85
�n����ʂ�,3_1_1,2022/6/5,18:00,66,57
�n����ʂ�,3_1_1,2022/6/5,19:00,29,26
�n����ʂ�,3_1_1,2022/6/5,20:00,7,9
�n����ʂ�,3_1_1,2022/6/5,21:00,5,11
�n����ʂ�,3_1_1,2022/6/5,22:00,2,5
�n����ʂ�,3_1_1,2022/6/5,23:00,5,5
�n����ʂ�,3_1_1,2022/6/6,0:00,0,3
�n����ʂ�,3_1_1,2022/6/6,1:00,1,0
�n����ʂ�,3_1_1,2022/6/6,2:00,0,2
�n����ʂ�,3_1_1,2022/6/6,3:00,1,8
�n����ʂ�,3_1_1,2022/6/6,4:00,5,5
�n����ʂ�,3_1_1,2022/6/6,5:00,25,16
�n����ʂ�,3_1_1,2022/6/6,6:00,35,54
�n����ʂ�,3_1_1,2022/6/6,7:00,48,179
�n����ʂ�,3_1_1,2022/6/6,8:00,63,194
�n����ʂ�,3_1_1,2022/6/6,9:00,131,97
�n����ʂ�,3_1_1,2022/6/6,10:00,138,137
�n����ʂ�,3_1_1,2022/6/6,11:00,147,115
�n����ʂ�,3_1_1,2022/6/6,12:00,183,184
�n����ʂ�,3_1_1,2022/6/6,13:00,187,135
�n����ʂ�,3_1_1,2022/6/6,14:00,163,105
�n����ʂ�,3_1_1,2022/6/6,15:00,127,109
�n����ʂ�,3_1_1,2022/6/6,16:00,186,123
�n����ʂ�,3_1_1,2022/6/6,17:00,213,112
�n����ʂ�,3_1_1,2022/6/6,18:00,238,93
�n����ʂ�,3_1_1,2022/6/6,19:00,94,56
�n����ʂ�,3_1_1,2022/6/6,20:00,40,50
�n����ʂ�,3_1_1,2022/6/6,21:00,15,21
�n����ʂ�,3_1_1,2022/6/6,22:00,1,11
�n����ʂ�,3_1_1,2022/6/6,23:00,4,2
�n����ʂ�,3_1_1,2022/6/7,0:00,1,1
�n����ʂ�,3_1_1,2022/6/7,1:00,0,0
�n����ʂ�,3_1_1,2022/6/7,2:00,2,2
�n����ʂ�,3_1_1,2022/6/7,3:00,1,8
�n����ʂ�,3_1_1,2022/6/7,4:00,7,6
�n����ʂ�,3_1_1,2022/6/7,5:00,31,37
�n����ʂ�,3_1_1,2022/6/7,6:00,44,66
�n����ʂ�,3_1_1,2022/6/7,7:00,82,410
�n����ʂ�,3_1_1,2022/6/7,8:00,118,342
�n����ʂ�,3_1_1,2022/6/7,9:00,139,102
�n����ʂ�,3_1_1,2022/6/7,10:00,166,133
�n����ʂ�,3_1_1,2022/6/7,11:00,143,180
�n����ʂ�,3_1_1,2022/6/7,12:00,192,162
�n����ʂ�,3_1_1,2022/6/7,13:00,123,140
�n����ʂ�,3_1_1,2022/6/7,14:00,167,110
�n����ʂ�,3_1_1,2022/6/7,15:00,122,105
�n����ʂ�,3_1_1,2022/6/7,16:00,198,120
�n����ʂ�,3_1_1,2022/6/7,17:00,280,102
�n����ʂ�,3_1_1,2022/6/7,18:00,376,84
�n����ʂ�,3_1_1,2022/6/7,19:00,82,98
�n����ʂ�,3_1_1,2022/6/7,20:00,27,44
�n����ʂ�,3_1_1,2022/6/7,21:00,19,11
�n����ʂ�,3_1_1,2022/6/7,22:00,12,5
�n����ʂ�,3_1_1,2022/6/7,23:00,4,3
�n����ʂ�,3_1_1,2022/6/8,0:00,0,2
�n����ʂ�,3_1_1,2022/6/8,1:00,1,1
�n����ʂ�,3_1_1,2022/6/8,2:00,1,1
�n����ʂ�,3_1_1,2022/6/8,3:00,2,7
�n����ʂ�,3_1_1,2022/6/8,4:00,6,5
�n����ʂ�,3_1_1,2022/6/8,5:00,33,27
�n����ʂ�,3_1_1,2022/6/8,6:00,35,54
�n����ʂ�,3_1_1,2022/6/8,7:00,80,441
�n����ʂ�,3_1_1,2022/6/8,8:00,133,341
�n����ʂ�,3_1_1,2022/6/8,9:00,158,110
�n����ʂ�,3_1_1,2022/6/8,10:00,167,156
�n����ʂ�,3_1_1,2022/6/8,11:00,161,151
�n����ʂ�,3_1_1,2022/6/8,12:00,196,196
�n����ʂ�,3_1_1,2022/6/8,13:00,179,134
�n����ʂ�,3_1_1,2022/6/8,14:00,160,95
�n����ʂ�,3_1_1,2022/6/8,15:00,225,119
�n����ʂ�,3_1_1,2022/6/8,16:00,354,138
�n����ʂ�,3_1_1,2022/6/8,17:00,252,133
�n����ʂ�,3_1_1,2022/6/8,18:00,259,122
�n����ʂ�,3_1_1,2022/6/8,19:00,82,102
�n����ʂ�,3_1_1,2022/6/8,20:00,25,32
�n����ʂ�,3_1_1,2022/6/8,21:00,11,20
�n����ʂ�,3_1_1,2022/6/8,22:00,8,11
�n����ʂ�,3_1_1,2022/6/8,23:00,0,2
�n����ʂ�,3_1_1,2022/6/9,0:00,2,3
�n����ʂ�,3_1_1,2022/6/9,1:00,0,1
�n����ʂ�,3_1_1,2022/6/9,2:00,0,0
�n����ʂ�,3_1_1,2022/6/9,3:00,2,9
�n����ʂ�,3_1_1,2022/6/9,4:00,6,7
�n����ʂ�,3_1_1,2022/6/9,5:00,30,34
�n����ʂ�,3_1_1,2022/6/9,6:00,45,63
�n����ʂ�,3_1_1,2022/6/9,7:00,106,527
�n����ʂ�,3_1_1,2022/6/9,8:00,121,359
�n����ʂ�,3_1_1,2022/6/9,9:00,156,110
�n����ʂ�,3_1_1,2022/6/9,10:00,127,126
�n����ʂ�,3_1_1,2022/6/9,11:00,137,133
�n����ʂ�,3_1_1,2022/6/9,12:00,189,202
�n����ʂ�,3_1_1,2022/6/9,13:00,162,121
�n����ʂ�,3_1_1,2022/6/9,14:00,165,77
�n����ʂ�,3_1_1,2022/6/9,15:00,136,103
�n����ʂ�,3_1_1,2022/6/9,16:00,249,123
�n����ʂ�,3_1_1,2022/6/9,17:00,241,137
�n����ʂ�,3_1_1,2022/6/9,18:00,374,136
�n����ʂ�,3_1_1,2022/6/9,19:00,89,80
�n����ʂ�,3_1_1,2022/6/9,20:00,47,62
�n����ʂ�,3_1_1,2022/6/9,21:00,27,22
�n����ʂ�,3_1_1,2022/6/9,22:00,15,5
�n����ʂ�,3_1_1,2022/6/9,23:00,8,7
�n����ʂ�,3_1_1,2022/6/10,0:00,1,3
�n����ʂ�,3_1_1,2022/6/10,1:00,4,2
�n����ʂ�,3_1_1,2022/6/10,2:00,0,1
�n����ʂ�,3_1_1,2022/6/10,3:00,2,9
�n����ʂ�,3_1_1,2022/6/10,4:00,7,2
�n����ʂ�,3_1_1,2022/6/10,5:00,26,35
�n����ʂ�,3_1_1,2022/6/10,6:00,36,64
�n����ʂ�,3_1_1,2022/6/10,7:00,89,512
�n����ʂ�,3_1_1,2022/6/10,8:00,89,307
�n����ʂ�,3_1_1,2022/6/10,9:00,179,133
�n����ʂ�,3_1_1,2022/6/10,10:00,195,175
�n����ʂ�,3_1_1,2022/6/10,11:00,217,197
�n����ʂ�,3_1_1,2022/6/10,12:00,211,222
�n����ʂ�,3_1_1,2022/6/10,13:00,207,177
�n����ʂ�,3_1_1,2022/6/10,14:00,236,201
�n����ʂ�,3_1_1,2022/6/10,15:00,318,194
�n����ʂ�,3_1_1,2022/6/10,16:00,346,144
�n����ʂ�,3_1_1,2022/6/10,17:00,300,132
�n����ʂ�,3_1_1,2022/6/10,18:00,221,144
�n����ʂ�,3_1_1,2022/6/10,19:00,101,102
�n����ʂ�,3_1_1,2022/6/10,20:00,90,65
�n����ʂ�,3_1_1,2022/6/10,21:00,27,23
�n����ʂ�,3_1_1,2022/6/10,22:00,17,14
�n����ʂ�,3_1_1,2022/6/10,23:00,8,5
�n����ʂ�,3_1_1,2022/6/11,0:00,7,1
�n����ʂ�,3_1_1,2022/6/11,1:00,1,2
�n����ʂ�,3_1_1,2022/6/11,2:00,4,2
�n����ʂ�,3_1_1,2022/6/11,3:00,1,8
�n����ʂ�,3_1_1,2022/6/11,4:00,5,4
�n����ʂ�,3_1_1,2022/6/11,5:00,26,29
�n����ʂ�,3_1_1,2022/6/11,6:00,30,33
�n����ʂ�,3_1_1,2022/6/11,7:00,37,65
�n����ʂ�,3_1_1,2022/6/11,8:00,63,89
�n����ʂ�,3_1_1,2022/6/11,9:00,113,129
�n����ʂ�,3_1_1,2022/6/11,10:00,178,193
�n����ʂ�,3_1_1,2022/6/11,11:00,176,237
�n����ʂ�,3_1_1,2022/6/11,12:00,232,279
�n����ʂ�,3_1_1,2022/6/11,13:00,307,300
�n����ʂ�,3_1_1,2022/6/11,14:00,317,293
�n����ʂ�,3_1_1,2022/6/11,15:00,237,247
�n����ʂ�,3_1_1,2022/6/11,16:00,201,203
�n����ʂ�,3_1_1,2022/6/11,17:00,194,192
�n����ʂ�,3_1_1,2022/6/11,18:00,128,172
�n����ʂ�,3_1_1,2022/6/11,19:00,82,108
�n����ʂ�,3_1_1,2022/6/11,20:00,57,67
�n����ʂ�,3_1_1,2022/6/11,21:00,91,53
�n����ʂ�,3_1_1,2022/6/11,22:00,40,24
�n����ʂ�,3_1_1,2022/6/11,23:00,4,4
�n����ʂ�,3_1_1,2022/6/12,0:00,10,12
�n����ʂ�,3_1_1,2022/6/12,1:00,0,0
�n����ʂ�,3_1_1,2022/6/12,2:00,3,4
�n����ʂ�,3_1_1,2022/6/12,3:00,5,6
�n����ʂ�,3_1_1,2022/6/12,4:00,1,3
�n����ʂ�,3_1_1,2022/6/12,5:00,20,30
�n����ʂ�,3_1_1,2022/6/12,6:00,3,5
�n����ʂ�,3_1_1,2022/6/12,7:00,4,4
�n����ʂ�,3_1_1,2022/6/12,8:00,83,95
�n����ʂ�,3_1_1,2022/6/12,9:00,117,170
�n����ʂ�,3_1_1,2022/6/12,10:00,222,255
�n����ʂ�,3_1_1,2022/6/12,11:00,171,238
�n����ʂ�,3_1_1,2022/6/12,12:00,0,0
�n����ʂ�,3_1_1,2022/6/12,13:00,0,0
�n����ʂ�,3_1_1,2022/6/12,14:00,0,0
�n����ʂ�,3_1_1,2022/6/12,15:00,0,0
�n����ʂ�,3_1_1,2022/6/12,16:00,0,0
�n����ʂ�,3_1_1,2022/6/12,17:00,0,0
�n����ʂ�,3_1_1,2022/6/12,18:00,0,0
�n����ʂ�,3_1_1,2022/6/12,19:00,0,0
�n����ʂ�,3_1_1,2022/6/12,20:00,0,0
�n����ʂ�,3_1_1,2022/6/12,21:00,0,0
�n����ʂ�,3_1_1,2022/6/12,22:00,0,0
�n����ʂ�,3_1_1,2022/6/12,23:00,0,0
�n����ʂ�,3_1_1,2022/6/13,0:00,0,0
�n����ʂ�,3_1_1,2022/6/13,1:00,0,0
�n����ʂ�,3_1_1,2022/6/13,2:00,0,0
�n����ʂ�,3_1_1,2022/6/13,3:00,0,0
�n����ʂ�,3_1_1,2022/6/13,4:00,0,0
�n����ʂ�,3_1_1,2022/6/13,5:00,0,0
�n����ʂ�,3_1_1,2022/6/13,6:00,0,0
�n����ʂ�,3_1_1,2022/6/13,7:00,0,0
�n����ʂ�,3_1_1,2022/6/13,8:00,0,0
�n����ʂ�,3_1_1,2022/6/13,9:00,0,0
�n����ʂ�,3_1_1,2022/6/13,10:00,0,0
�n����ʂ�,3_1_1,2022/6/13,11:00,0,0
�n����ʂ�,3_1_1,2022/6/13,12:00,0,0
�n����ʂ�,3_1_1,2022/6/13,13:00,0,0
�n����ʂ�,3_1_1,2022/6/13,14:00,0,0
�n����ʂ�,3_1_1,2022/6/13,15:00,0,0
�n����ʂ�,3_1_1,2022/6/13,16:00,0,0
�n����ʂ�,3_1_1,2022/6/13,17:00,0,0
�n����ʂ�,3_1_1,2022/6/13,18:00,0,0
�n����ʂ�,3_1_1,2022/6/13,19:00,0,0
�n����ʂ�,3_1_1,2022/6/13,20:00,0,0
�n����ʂ�,3_1_1,2022/6/13,21:00,0,0
�n����ʂ�,3_1_1,2022/6/13,22:00,0,0
�n����ʂ�,3_1_1,2022/6/13,23:00,0,0
�n����ʂ�,3_1_1,2022/6/14,0:00,0,0
�n����ʂ�,3_1_1,2022/6/14,1:00,0,0
�n����ʂ�,3_1_1,2022/6/14,2:00,0,0
�n����ʂ�,3_1_1,2022/6/14,3:00,0,0
�n����ʂ�,3_1_1,2022/6/14,4:00,0,0
�n����ʂ�,3_1_1,2022/6/14,5:00,0,0
�n����ʂ�,3_1_1,2022/6/14,6:00,0,0
�n����ʂ�,3_1_1,2022/6/14,7:00,0,0
�n����ʂ�,3_1_1,2022/6/14,8:00,0,0
�n����ʂ�,3_1_1,2022/6/14,9:00,0,0
�n����ʂ�,3_1_1,2022/6/14,10:00,0,0
�n����ʂ�,3_1_1,2022/6/14,11:00,0,0
�n����ʂ�,3_1_1,2022/6/14,12:00,0,0
�n����ʂ�,3_1_1,2022/6/14,13:00,0,0
�n����ʂ�,3_1_1,2022/6/14,14:00,0,0
�n����ʂ�,3_1_1,2022/6/14,15:00,0,0
�n����ʂ�,3_1_1,2022/6/14,16:00,0,0
�n����ʂ�,3_1_1,2022/6/14,17:00,0,0
�n����ʂ�,3_1_1,2022/6/14,18:00,0,0
�n����ʂ�,3_1_1,2022/6/14,19:00,0,0
�n����ʂ�,3_1_1,2022/6/14,20:00,0,0
�n����ʂ�,3_1_1,2022/6/14,21:00,0,0
�n����ʂ�,3_1_1,2022/6/14,22:00,0,0
�n����ʂ�,3_1_1,2022/6/14,23:00,0,0
�n����ʂ�,3_1_1,2022/6/15,0:00,0,0
�n����ʂ�,3_1_1,2022/6/15,1:00,0,0
�n����ʂ�,3_1_1,2022/6/15,2:00,0,0
�n����ʂ�,3_1_1,2022/6/15,3:00,0,0
�n����ʂ�,3_1_1,2022/6/15,4:00,0,0
�n����ʂ�,3_1_1,2022/6/15,5:00,0,0
�n����ʂ�,3_1_1,2022/6/15,6:00,0,0
�n����ʂ�,3_1_1,2022/6/15,7:00,0,0
�n����ʂ�,3_1_1,2022/6/15,8:00,0,0
�n����ʂ�,3_1_1,2022/6/15,9:00,0,0
�n����ʂ�,3_1_1,2022/6/15,10:00,0,0
�n����ʂ�,3_1_1,2022/6/15,11:00,0,0
�n����ʂ�,3_1_1,2022/6/15,12:00,173,150
�n����ʂ�,3_1_1,2022/6/15,13:00,162,156
�n����ʂ�,3_1_1,2022/6/15,14:00,167,149
�n����ʂ�,3_1_1,2022/6/15,15:00,180,111
�n����ʂ�,3_1_1,2022/6/15,16:00,417,125
�n����ʂ�,3_1_1,2022/6/15,17:00,240,108
�n����ʂ�,3_1_1,2022/6/15,18:00,141,140
�n����ʂ�,3_1_1,2022/6/15,19:00,95,85
�n����ʂ�,3_1_1,2022/6/15,20:00,74,68
�n����ʂ�,3_1_1,2022/6/15,21:00,62,38
�n����ʂ�,3_1_1,2022/6/15,22:00,12,12
�n����ʂ�,3_1_1,2022/6/15,23:00,2,3
�n����ʂ�,3_1_1,2022/6/16,0:00,2,2
�n����ʂ�,3_1_1,2022/6/16,1:00,4,0
�n����ʂ�,3_1_1,2022/6/16,2:00,0,4
�n����ʂ�,3_1_1,2022/6/16,3:00,1,5
�n����ʂ�,3_1_1,2022/6/16,4:00,3,3
�n����ʂ�,3_1_1,2022/6/16,5:00,21,32
�n����ʂ�,3_1_1,2022/6/16,6:00,37,56
�n����ʂ�,3_1_1,2022/6/16,7:00,84,359
�n����ʂ�,3_1_1,2022/6/16,8:00,113,328
�n����ʂ�,3_1_1,2022/6/16,9:00,152,116
�n����ʂ�,3_1_1,2022/6/16,10:00,159,146
�n����ʂ�,3_1_1,2022/6/16,11:00,169,150
�n����ʂ�,3_1_1,2022/6/16,12:00,174,186
�n����ʂ�,3_1_1,2022/6/16,13:00,161,159
�n����ʂ�,3_1_1,2022/6/16,14:00,180,114
�n����ʂ�,3_1_1,2022/6/16,15:00,153,131
�n����ʂ�,3_1_1,2022/6/16,16:00,250,120
�n����ʂ�,3_1_1,2022/6/16,17:00,231,117
�n����ʂ�,3_1_1,2022/6/16,18:00,322,101
�n����ʂ�,3_1_1,2022/6/16,19:00,95,96
�n����ʂ�,3_1_1,2022/6/16,20:00,78,65
�n����ʂ�,3_1_1,2022/6/16,21:00,64,38
�n����ʂ�,3_1_1,2022/6/16,22:00,5,4
�n����ʂ�,3_1_1,2022/6/16,23:00,6,9
�n����ʂ�,3_1_1,2022/6/17,0:00,5,0
�n����ʂ�,3_1_1,2022/6/17,1:00,1,4
�n����ʂ�,3_1_1,2022/6/17,2:00,1,4
�n����ʂ�,3_1_1,2022/6/17,3:00,3,4
�n����ʂ�,3_1_1,2022/6/17,4:00,4,6
�n����ʂ�,3_1_1,2022/6/17,5:00,29,24
�n����ʂ�,3_1_1,2022/6/17,6:00,45,51
�n����ʂ�,3_1_1,2022/6/17,7:00,90,432
�n����ʂ�,3_1_1,2022/6/17,8:00,99,359
�n����ʂ�,3_1_1,2022/6/17,9:00,156,128
�n����ʂ�,3_1_1,2022/6/17,10:00,158,186
�n����ʂ�,3_1_1,2022/6/17,11:00,212,178
�n����ʂ�,3_1_1,2022/6/17,12:00,224,237
�n����ʂ�,3_1_1,2022/6/17,13:00,214,193
�n����ʂ�,3_1_1,2022/6/17,14:00,232,157
�n����ʂ�,3_1_1,2022/6/17,15:00,299,159
�n����ʂ�,3_1_1,2022/6/17,16:00,288,151
�n����ʂ�,3_1_1,2022/6/17,17:00,282,146
�n����ʂ�,3_1_1,2022/6/17,18:00,318,185
�n����ʂ�,3_1_1,2022/6/17,19:00,120,109
�n����ʂ�,3_1_1,2022/6/17,20:00,74,66
�n����ʂ�,3_1_1,2022/6/17,21:00,30,36
�n����ʂ�,3_1_1,2022/6/17,22:00,18,35
�n����ʂ�,3_1_1,2022/6/17,23:00,6,15
�n����ʂ�,3_1_1,2022/6/18,0:00,7,8
�n����ʂ�,3_1_1,2022/6/18,1:00,1,2
�n����ʂ�,3_1_1,2022/6/18,2:00,3,0
�n����ʂ�,3_1_1,2022/6/18,3:00,4,4
�n����ʂ�,3_1_1,2022/6/18,4:00,3,6
�n����ʂ�,3_1_1,2022/6/18,5:00,22,28
�n����ʂ�,3_1_1,2022/6/18,6:00,37,54
�n����ʂ�,3_1_1,2022/6/18,7:00,62,103
�n����ʂ�,3_1_1,2022/6/18,8:00,110,117
�n����ʂ�,3_1_1,2022/6/18,9:00,162,134
�n����ʂ�,3_1_1,2022/6/18,10:00,196,258
�n����ʂ�,3_1_1,2022/6/18,11:00,254,270
�n����ʂ�,3_1_1,2022/6/18,12:00,355,345
�n����ʂ�,3_1_1,2022/6/18,13:00,334,385
�n����ʂ�,3_1_1,2022/6/18,14:00,357,356
�n����ʂ�,3_1_1,2022/6/18,15:00,334,266
�n����ʂ�,3_1_1,2022/6/18,16:00,278,212
�n����ʂ�,3_1_1,2022/6/18,17:00,262,211
�n����ʂ�,3_1_1,2022/6/18,18:00,178,173
�n����ʂ�,3_1_1,2022/6/18,19:00,125,126
�n����ʂ�,3_1_1,2022/6/18,20:00,105,93
�n����ʂ�,3_1_1,2022/6/18,21:00,32,24
�n����ʂ�,3_1_1,2022/6/18,22:00,12,20
�n����ʂ�,3_1_1,2022/6/18,23:00,11,8
�n����ʂ�,3_1_1,2022/6/19,0:00,7,7
�n����ʂ�,3_1_1,2022/6/19,1:00,1,0
�n����ʂ�,3_1_1,2022/6/19,2:00,4,5
�n����ʂ�,3_1_1,2022/6/19,3:00,2,4
�n����ʂ�,3_1_1,2022/6/19,4:00,11,9
�n����ʂ�,3_1_1,2022/6/19,5:00,18,22
�n����ʂ�,3_1_1,2022/6/19,6:00,36,25
�n����ʂ�,3_1_1,2022/6/19,7:00,49,47
�n����ʂ�,3_1_1,2022/6/19,8:00,78,95
�n����ʂ�,3_1_1,2022/6/19,9:00,140,160
�n����ʂ�,3_1_1,2022/6/19,10:00,203,299
�n����ʂ�,3_1_1,2022/6/19,11:00,342,357
�n����ʂ�,3_1_1,2022/6/19,12:00,399,400
�n����ʂ�,3_1_1,2022/6/19,13:00,428,407
�n����ʂ�,3_1_1,2022/6/19,14:00,391,383
�n����ʂ�,3_1_1,2022/6/19,15:00,317,307
�n����ʂ�,3_1_1,2022/6/19,16:00,225,209
�n����ʂ�,3_1_1,2022/6/19,17:00,176,171
�n����ʂ�,3_1_1,2022/6/19,18:00,113,107
�n����ʂ�,3_1_1,2022/6/19,19:00,77,72
�n����ʂ�,3_1_1,2022/6/19,20:00,48,47
�n����ʂ�,3_1_1,2022/6/19,21:00,13,9
�n����ʂ�,3_1_1,2022/6/19,22:00,10,10
�n����ʂ�,3_1_1,2022/6/19,23:00,4,2
�n����ʂ�,3_1_1,2022/6/20,0:00,0,4
�n����ʂ�,3_1_1,2022/6/20,1:00,0,2
�n����ʂ�,3_1_1,2022/6/20,2:00,3,4
�n����ʂ�,3_1_1,2022/6/20,3:00,1,8
�n����ʂ�,3_1_1,2022/6/20,4:00,6,7
�n����ʂ�,3_1_1,2022/6/20,5:00,20,31
�n����ʂ�,3_1_1,2022/6/20,6:00,38,47
�n����ʂ�,3_1_1,2022/6/20,7:00,68,360
�n����ʂ�,3_1_1,2022/6/20,8:00,105,355
�n����ʂ�,3_1_1,2022/6/20,9:00,152,128
�n����ʂ�,3_1_1,2022/6/20,10:00,180,151
�n����ʂ�,3_1_1,2022/6/20,11:00,201,178
�n����ʂ�,3_1_1,2022/6/20,12:00,226,191
�n����ʂ�,3_1_1,2022/6/20,13:00,192,155
�n����ʂ�,3_1_1,2022/6/20,14:00,203,118
�n����ʂ�,3_1_1,2022/6/20,15:00,235,137
�n����ʂ�,3_1_1,2022/6/20,16:00,208,143
�n����ʂ�,3_1_1,2022/6/20,17:00,268,111
�n����ʂ�,3_1_1,2022/6/20,18:00,331,106
�n����ʂ�,3_1_1,2022/6/20,19:00,82,80
�n����ʂ�,3_1_1,2022/6/20,20:00,79,71
�n����ʂ�,3_1_1,2022/6/20,21:00,27,34
�n����ʂ�,3_1_1,2022/6/20,22:00,9,6
�n����ʂ�,3_1_1,2022/6/20,23:00,1,6
�n����ʂ�,3_1_1,2022/6/21,0:00,3,1
�n����ʂ�,3_1_1,2022/6/21,1:00,2,1
�n����ʂ�,3_1_1,2022/6/21,2:00,1,2
�n����ʂ�,3_1_1,2022/6/21,3:00,1,5
�n����ʂ�,3_1_1,2022/6/21,4:00,1,11
�n����ʂ�,3_1_1,2022/6/21,5:00,26,25
�n����ʂ�,3_1_1,2022/6/21,6:00,34,43
�n����ʂ�,3_1_1,2022/6/21,7:00,54,190
�n����ʂ�,3_1_1,2022/6/21,8:00,81,165
�n����ʂ�,3_1_1,2022/6/21,9:00,100,95
�n����ʂ�,3_1_1,2022/6/21,10:00,108,94
�n����ʂ�,3_1_1,2022/6/21,11:00,119,94
�n����ʂ�,3_1_1,2022/6/21,12:00,165,134
�n����ʂ�,3_1_1,2022/6/21,13:00,106,90
�n����ʂ�,3_1_1,2022/6/21,14:00,104,85
�n����ʂ�,3_1_1,2022/6/21,15:00,101,68
�n����ʂ�,3_1_1,2022/6/21,16:00,178,94
�n����ʂ�,3_1_1,2022/6/21,17:00,216,99
�n����ʂ�,3_1_1,2022/6/21,18:00,158,65
�n����ʂ�,3_1_1,2022/6/21,19:00,67,73
�n����ʂ�,3_1_1,2022/6/21,20:00,20,17
�n����ʂ�,3_1_1,2022/6/21,21:00,22,26
�n����ʂ�,3_1_1,2022/6/21,22:00,9,8
�n����ʂ�,3_1_1,2022/6/21,23:00,0,4
�n����ʂ�,3_1_1,2022/6/22,0:00,5,3
�n����ʂ�,3_1_1,2022/6/22,1:00,2,1
�n����ʂ�,3_1_1,2022/6/22,2:00,0,5
�n����ʂ�,3_1_1,2022/6/22,3:00,0,6
�n����ʂ�,3_1_1,2022/6/22,4:00,4,8
�n����ʂ�,3_1_1,2022/6/22,5:00,36,30
�n����ʂ�,3_1_1,2022/6/22,6:00,41,62
�n����ʂ�,3_1_1,2022/6/22,7:00,60,167
�n����ʂ�,3_1_1,2022/6/22,8:00,78,203
�n����ʂ�,3_1_1,2022/6/22,9:00,128,109
�n����ʂ�,3_1_1,2022/6/22,10:00,152,135
�n����ʂ�,3_1_1,2022/6/22,11:00,177,169
�n����ʂ�,3_1_1,2022/6/22,12:00,178,147
�n����ʂ�,3_1_1,2022/6/22,13:00,159,134
�n����ʂ�,3_1_1,2022/6/22,14:00,151,87
�n����ʂ�,3_1_1,2022/6/22,15:00,168,105
�n����ʂ�,3_1_1,2022/6/22,16:00,264,110
�n����ʂ�,3_1_1,2022/6/22,17:00,209,129
�n����ʂ�,3_1_1,2022/6/22,18:00,136,106
�n����ʂ�,3_1_1,2022/6/22,19:00,68,100
�n����ʂ�,3_1_1,2022/6/22,20:00,65,57
�n����ʂ�,3_1_1,2022/6/22,21:00,59,24
�n����ʂ�,3_1_1,2022/6/22,22:00,38,18
�n����ʂ�,3_1_1,2022/6/22,23:00,4,2
�n����ʂ�,3_1_1,2022/6/23,0:00,1,3
�n����ʂ�,3_1_1,2022/6/23,1:00,0,0
�n����ʂ�,3_1_1,2022/6/23,2:00,0,2
�n����ʂ�,3_1_1,2022/6/23,3:00,1,5
�n����ʂ�,3_1_1,2022/6/23,4:00,8,2
�n����ʂ�,3_1_1,2022/6/23,5:00,24,34
�n����ʂ�,3_1_1,2022/6/23,6:00,36,72
�n����ʂ�,3_1_1,2022/6/23,7:00,75,442
�n����ʂ�,3_1_1,2022/6/23,8:00,103,387
�n����ʂ�,3_1_1,2022/6/23,9:00,127,124
�n����ʂ�,3_1_1,2022/6/23,10:00,159,145
�n����ʂ�,3_1_1,2022/6/23,11:00,134,125
�n����ʂ�,3_1_1,2022/6/23,12:00,155,176
�n����ʂ�,3_1_1,2022/6/23,13:00,129,126
�n����ʂ�,3_1_1,2022/6/23,14:00,135,70
�n����ʂ�,3_1_1,2022/6/23,15:00,114,121
�n����ʂ�,3_1_1,2022/6/23,16:00,370,117
�n����ʂ�,3_1_1,2022/6/23,17:00,281,135
�n����ʂ�,3_1_1,2022/6/23,18:00,190,107
�n����ʂ�,3_1_1,2022/6/23,19:00,96,96
�n����ʂ�,3_1_1,2022/6/23,20:00,60,65
�n����ʂ�,3_1_1,2022/6/23,21:00,93,46
�n����ʂ�,3_1_1,2022/6/23,22:00,40,32
�n����ʂ�,3_1_1,2022/6/23,23:00,25,7
�n����ʂ�,3_1_1,2022/6/24,0:00,15,8
�n����ʂ�,3_1_1,2022/6/24,1:00,6,6
�n����ʂ�,3_1_1,2022/6/24,2:00,9,5
�n����ʂ�,3_1_1,2022/6/24,3:00,9,15
�n����ʂ�,3_1_1,2022/6/24,4:00,6,11
�n����ʂ�,3_1_1,2022/6/24,5:00,30,33
�n����ʂ�,3_1_1,2022/6/24,6:00,34,78
�n����ʂ�,3_1_1,2022/6/24,7:00,81,419
�n����ʂ�,3_1_1,2022/6/24,8:00,118,368
�n����ʂ�,3_1_1,2022/6/24,9:00,168,145
�n����ʂ�,3_1_1,2022/6/24,10:00,199,182
�n����ʂ�,3_1_1,2022/6/24,11:00,195,160
�n����ʂ�,3_1_1,2022/6/24,12:00,204,200
�n����ʂ�,3_1_1,2022/6/24,13:00,184,151
�n����ʂ�,3_1_1,2022/6/24,14:00,160,123
�n����ʂ�,3_1_1,2022/6/24,15:00,356,118
�n����ʂ�,3_1_1,2022/6/24,16:00,298,136
�n����ʂ�,3_1_1,2022/6/24,17:00,241,170
�n����ʂ�,3_1_1,2022/6/24,18:00,212,157
�n����ʂ�,3_1_1,2022/6/24,19:00,129,115
�n����ʂ�,3_1_1,2022/6/24,20:00,64,100
�n����ʂ�,3_1_1,2022/6/24,21:00,110,54
�n����ʂ�,3_1_1,2022/6/24,22:00,40,17
�n����ʂ�,3_1_1,2022/6/24,23:00,24,15
�n����ʂ�,3_1_1,2022/6/25,0:00,2,7
�n����ʂ�,3_1_1,2022/6/25,1:00,7,4
�n����ʂ�,3_1_1,2022/6/25,2:00,7,2
�n����ʂ�,3_1_1,2022/6/25,3:00,5,5
�n����ʂ�,3_1_1,2022/6/25,4:00,8,9
�n����ʂ�,3_1_1,2022/6/25,5:00,19,22
�n����ʂ�,3_1_1,2022/6/25,6:00,41,43
�n����ʂ�,3_1_1,2022/6/25,7:00,37,55
�n����ʂ�,3_1_1,2022/6/25,8:00,80,81
�n����ʂ�,3_1_1,2022/6/25,9:00,129,135
�n����ʂ�,3_1_1,2022/6/25,10:00,171,217
�n����ʂ�,3_1_1,2022/6/25,11:00,210,285
�n����ʂ�,3_1_1,2022/6/25,12:00,289,382
�n����ʂ�,3_1_1,2022/6/25,13:00,356,362
�n����ʂ�,3_1_1,2022/6/25,14:00,294,309
�n����ʂ�,3_1_1,2022/6/25,15:00,295,276
�n����ʂ�,3_1_1,2022/6/25,16:00,201,240
�n����ʂ�,3_1_1,2022/6/25,17:00,185,199
�n����ʂ�,3_1_1,2022/6/25,18:00,194,188
�n����ʂ�,3_1_1,2022/6/25,19:00,157,123
�n����ʂ�,3_1_1,2022/6/25,20:00,104,81
�n����ʂ�,3_1_1,2022/6/25,21:00,79,58
�n����ʂ�,3_1_1,2022/6/25,22:00,32,37
�n����ʂ�,3_1_1,2022/6/25,23:00,23,11
�n����ʂ�,3_1_1,2022/6/26,0:00,6,4
�n����ʂ�,3_1_1,2022/6/26,1:00,5,3
�n����ʂ�,3_1_1,2022/6/26,2:00,3,3
�n����ʂ�,3_1_1,2022/6/26,3:00,1,4
�n����ʂ�,3_1_1,2022/6/26,4:00,3,8
�n����ʂ�,3_1_1,2022/6/26,5:00,35,31
�n����ʂ�,3_1_1,2022/6/26,6:00,29,34
�n����ʂ�,3_1_1,2022/6/26,7:00,38,40
�n����ʂ�,3_1_1,2022/6/26,8:00,79,59
�n����ʂ�,3_1_1,2022/6/26,9:00,112,144
�n����ʂ�,3_1_1,2022/6/26,10:00,202,210
�n����ʂ�,3_1_1,2022/6/26,11:00,278,313
�n����ʂ�,3_1_1,2022/6/26,12:00,360,439
�n����ʂ�,3_1_1,2022/6/26,13:00,361,404
�n����ʂ�,3_1_1,2022/6/26,14:00,351,302
�n����ʂ�,3_1_1,2022/6/26,15:00,272,213
�n����ʂ�,3_1_1,2022/6/26,16:00,221,232
�n����ʂ�,3_1_1,2022/6/26,17:00,145,129
�n����ʂ�,3_1_1,2022/6/26,18:00,119,107
�n����ʂ�,3_1_1,2022/6/26,19:00,64,51
�n����ʂ�,3_1_1,2022/6/26,20:00,35,45
�n����ʂ�,3_1_1,2022/6/26,21:00,40,31
�n����ʂ�,3_1_1,2022/6/26,22:00,3,3
�n����ʂ�,3_1_1,2022/6/26,23:00,6,6
�n����ʂ�,3_1_1,2022/6/27,0:00,1,5
�n����ʂ�,3_1_1,2022/6/27,1:00,0,2
�n����ʂ�,3_1_1,2022/6/27,2:00,3,4
�n����ʂ�,3_1_1,2022/6/27,3:00,3,10
�n����ʂ�,3_1_1,2022/6/27,4:00,7,7
�n����ʂ�,3_1_1,2022/6/27,5:00,24,35
�n����ʂ�,3_1_1,2022/6/27,6:00,30,60
�n����ʂ�,3_1_1,2022/6/27,7:00,88,451
�n����ʂ�,3_1_1,2022/6/27,8:00,104,371
�n����ʂ�,3_1_1,2022/6/27,9:00,158,136
�n����ʂ�,3_1_1,2022/6/27,10:00,156,177
�n����ʂ�,3_1_1,2022/6/27,11:00,168,179
�n����ʂ�,3_1_1,2022/6/27,12:00,186,196
�n����ʂ�,3_1_1,2022/6/27,13:00,176,142
�n����ʂ�,3_1_1,2022/6/27,14:00,155,110
�n����ʂ�,3_1_1,2022/6/27,15:00,331,107